Iron Mountain, MI

11:59 PM CST on February 09, 2016 (GMT -0600)
Ford

Weather History for KIMT - November, 2013

Change the Weather History Date:

Monday, November 25, 2013

  Actual Average Record
Temperature  
Mean Temperature 30 °F -  
Max Temperature 34 °F 33 °F 54 °F (1998)
Min Temperature 25 °F 19 °F -8 °F (1950)
Degree Days  
Heating Degree Days 36    
Moisture  
Dew Point 19 °F    
Average Humidity 62    
Maximum Humidity 70    
Minimum Humidity 49    
Precipitation  
Precipitation 0.00 in - - ()
Sea Level Pressure  
Sea Level Pressure 29.86 in    
Wind  
Wind Speed 10 mph (WSW)    
Max Wind Speed 15 mph    
Max Gust Speed 26 mph    
Visibility 10 miles    
Events      
Averages and records for this station are not official NWS values.
T = Trace of Precipitation, MM = Missing Value Source: NWS Daily Summary

Daily Weather History Graph

Daily Weather History Graph

Search for Another Location

Airport or City:

Trip Planner

Search our weather history database for the weather conditions in past years. The results will help you decide how hot, cold, wet, or windy it might be!

Date:

Astronomy

Nov. 25, 2013 Rise Set
Actual Time 7:06 AM CST 4:12 PM CST
Civil Twilight 6:32 AM CST 4:45 PM CST
Nautical Twilight 5:56 AM CST 5:22 PM CST
Astronomical Twilight 5:20 AM CST 5:58 PM CST
Moon 11:50 PM CST (11/25) 12:10 PM CST (11/25)
Length of Visible Light 10h 12m
Length of Day
9h 06m
Waning Gibbous, 51% of the Moon is Illuminated
Nov 25
Waning Gibbous
Nov 25
Last Quarter
Dec 2
New
Dec 9
First Quarter
Dec 17
Full

Hourly Weather History & Observations

Time (CST) Temp. Windchill Dew Point Humidity Pressure Visibility Wind Dir Wind Speed Gust Speed Precip Events Conditions
12:54 AM 25.0 °F 15.5 °F 8.1 °F 49% 29.98 in 10.0 mi SW 9.2 mph - N/A   Overcast
1:54 AM 26.1 °F 16.8 °F 10.0 °F 51% 29.95 in 10.0 mi SSW 9.2 mph - N/A   Overcast
2:54 AM 27.0 °F 16.1 °F 10.0 °F 49% 29.91 in 10.0 mi SW 12.7 mph - N/A   Overcast
3:54 AM 27.0 °F 18.7 °F 12.0 °F 53% 29.89 in 10.0 mi SW 8.1 mph 18.4 mph N/A   Overcast
4:54 AM 27.0 °F 16.1 °F 16.0 °F 63% 29.88 in 9.0 mi SW 12.7 mph 26.5 mph 0.00 in   Overcast
5:54 AM 28.0 °F 18.6 °F 15.1 °F 58% 29.84 in 10.0 mi WSW 10.4 mph 24.2 mph 0.00 in   Overcast
6:54 AM 28.0 °F 19.3 °F 16.0 °F 61% 29.85 in 10.0 mi WSW 9.2 mph 20.7 mph N/A   Overcast
7:06 AM 28.4 °F 17.5 °F 15.8 °F 59% 29.79 in 10.0 mi West 13.8 mph 21.9 mph N/A   Overcast
7:54 AM 28.0 °F 17.0 °F 16.0 °F 61% 29.85 in 10.0 mi WSW 13.8 mph 21.9 mph N/A   Overcast
8:54 AM 28.0 °F 17.0 °F 17.1 °F 63% 29.84 in 10.0 mi WSW 13.8 mph 20.7 mph N/A   Overcast
9:54 AM 30.0 °F 21.1 °F 19.0 °F 64% 29.84 in 10.0 mi WSW 10.4 mph 18.4 mph N/A   Overcast
10:10 AM 30.2 °F 19.3 °F 19.4 °F 64% 29.79 in 10.0 mi WSW 15.0 mph 20.7 mph N/A   Overcast
10:54 AM 30.0 °F 21.7 °F 19.0 °F 64% 29.84 in 10.0 mi WSW 9.2 mph 23.0 mph N/A   Overcast
11:54 AM 30.9 °F 22.2 °F 19.9 °F 64% 29.83 in 10.0 mi WSW 10.4 mph 19.6 mph N/A   Overcast
12:19 PM 32.0 °F 23.0 °F 21.2 °F 64% 29.78 in 10.0 mi WSW 11.5 mph - N/A   Overcast
12:54 PM 33.1 °F 24.9 °F 21.9 °F 64% 29.83 in 10.0 mi WSW 10.4 mph - N/A   Overcast
1:54 PM 34.0 °F 25.0 °F 21.9 °F 61% 29.83 in 10.0 mi WSW 12.7 mph 20.7 mph N/A   Overcast
2:54 PM 34.0 °F 25.5 °F 21.9 °F 61% 29.84 in 10.0 mi WSW 11.5 mph - N/A   Overcast
3:54 PM 34.0 °F 27.2 °F 23.0 °F 64% 29.86 in 10.0 mi SW 8.1 mph - N/A   Overcast
4:54 PM 34.0 °F 27.2 °F 23.0 °F 64% 29.88 in 10.0 mi SW 8.1 mph - N/A   Overcast
5:54 PM 34.0 °F 28.8 °F 24.1 °F 67% 29.90 in 10.0 mi WSW 5.8 mph - N/A   Overcast
6:54 PM 34.0 °F 28.0 °F 24.1 °F 67% 29.89 in 10.0 mi WSW 6.9 mph - N/A   Overcast
7:54 PM 34.0 °F 28.8 °F 25.0 °F 70% 29.90 in 10.0 mi West 5.8 mph - N/A   Overcast
8:54 PM 34.0 °F 28.0 °F 24.1 °F 67% 29.89 in 10.0 mi WSW 6.9 mph - N/A   Overcast
9:54 PM 33.1 °F 25.5 °F 24.1 °F 70% 29.89 in 10.0 mi West 9.2 mph - N/A   Overcast
10:54 PM 33.1 °F 27.7 °F 23.0 °F 66% 29.88 in 10.0 mi West 5.8 mph - N/A   Mostly Cloudy
11:54 PM 33.1 °F 28.7 °F 23.0 °F 66% 29.89 in 10.0 mi West 4.6 mph - N/A   Overcast